| time (UTC) | temp C | wind direction | speed KPH | gust KPH | rain 1hr cm | rain 24hr cm | rain mn cm | humidity % | barometer mb |
| 20260904190041 | 16 | 140 | 0.0 | 1.6 | 0.00 | 0.28 | 0.13 | 77 | 1012.6 |
| 20260904184542 | 15 | 290 | 0.0 | 4.8 | 0.00 | 0.28 | 0.13 | 79 | 1012.6 |
| 20260904183034 | 15 | 300 | 0.0 | 3.2 | 0.00 | 0.28 | 0.13 | 84 | 1012.6 |
| 20260904181538 | 14 | 300 | 0.0 | 1.6 | 0.03 | 0.28 | 0.13 | 85 | 1012.5 |
| 20260904180035 | 14 | 326 | 0.0 | 3.2 | 0.03 | 0.28 | 0.13 | 89 | 1012.3 |
| 20260904174530 | 13 | 159 | 0.0 | 0.0 | 0.03 | 0.28 | 0.13 | 89 | 1012.2 |
| 20260904173028 | 13 | 178 | 0.0 | 0.0 | 0.03 | 0.28 | 0.13 | 89 | 1012.2 |
| 20260904171538 | 13 | 135 | 0.0 | 1.6 | 0.00 | 0.25 | 0.10 | 90 | 1012.2 |
| 20260904170009 | 13 | 135 | 0.0 | 0.0 | 0.00 | 0.25 | 0.10 | 91 | 1012.1 |
| 20260904164512 | 12 | 135 | 0.0 | 0.0 | 0.00 | 0.25 | 0.10 | 92 | 1012.0 |
| 20260904163056 | 12 | 135 | 0.0 | 1.6 | 0.00 | 0.25 | 0.10 | 93 | 1011.8 |
| 20260904161555 | 12 | 135 | 0.0 | 1.6 | 0.00 | 0.43 | 0.10 | 94 | 1011.8 |
| 20260904160054 | 12 | 219 | 0.0 | 1.6 | 0.00 | 0.43 | 0.10 | 95 | 1011.7 |
| 20260904154554 | 11 | 304 | 0.0 | 0.0 | 0.00 | 0.43 | 0.10 | 95 | 1011.7 |
| 20260904153103 | 11 | 311 | 0.0 | 3.2 | 0.00 | 0.43 | 0.10 | 95 | 1011.7 |
| 20260904151551 | 11 | 302 | 0.0 | 0.0 | 0.00 | 0.43 | 0.10 | 95 | 1011.4 |
| 20260904150054 | 11 | 302 | 0.0 | 1.6 | 0.00 | 0.43 | 0.10 | 96 | 1011.5 |
| 20260904144551 | -17 | 0.0 | 0.0 | 0.00 | 0.43 | 0.10 | 1011.2 | ||
| 20260904143034 | -17 | 0.0 | 0.0 | 0.00 | 0.43 | 0.10 | 1011.0 | ||
| 20260904141533 | -17 | 0.0 | 0.0 | 0.00 | 0.43 | 0.10 | 1010.9 | ||
| 20260904140028 | -17 | 0.0 | 0.0 | 0.00 | 0.43 | 0.10 | 1010.8 | ||
| 20260904134517 | -17 | 0.0 | 0.0 | 0.00 | 0.43 | 0.10 | 1010.6 | ||
| 20260904133023 | -17 | 0.0 | 0.0 | 0.00 | 0.43 | 0.10 | 1010.6 | ||
| 20260904131511 | -17 | 0.0 | 0.0 | 0.00 | 0.43 | 0.10 | 1010.4 | ||
| 20260904130004 | -17 | 0.0 | 0.0 | 0.00 | 0.43 | 0.10 | 1010.2 | ||
| 20260904124609 | -17 | 0.0 | 0.0 | 0.00 | 0.43 | 0.10 | 1010.2 | ||
| 20260904123044 | -17 | 0.0 | 0.0 | 0.03 | 0.43 | 0.10 | 1010.2 | ||
| 20260904121539 | -17 | 0.0 | 0.0 | 0.05 | 0.43 | 0.10 | 1010.1 | ||
| 20260904120041 | 12 | 167 | 0.0 | 0.0 | 0.08 | 0.43 | 0.10 | 95 | 1010.0 |
| 20260904114541 | 11 | 168 | 0.0 | 1.6 | 0.10 | 0.43 | 0.10 | 95 | 1010.0 |
| 20260904113040 | 11 | 214 | 0.0 | 0.0 | 0.08 | 0.41 | 0.08 | 94 | 1009.9 |
| 20260904111532 | 11 | 215 | 0.0 | 1.6 | 0.05 | 0.38 | 0.05 | 94 | 1009.8 |
| 20260904110030 | 11 | 215 | 0.0 | 1.6 | 0.03 | 0.36 | 0.03 | 94 | 1009.7 |
| 20260904104533 | 11 | 217 | 0.0 | 0.0 | 0.00 | 0.33 | 0.00 | 93 | 1009.7 |
| 20260904103036 | 11 | 217 | 0.0 | 0.0 | 0.00 | 0.33 | 0.00 | 93 | 1009.7 |
| 20260904101511 | 11 | 217 | 0.0 | 0.0 | 0.00 | 0.33 | 0.00 | 93 | 1009.6 |
| 20260904100011 | 11 | 217 | 0.0 | 0.0 | 0.00 | 0.33 | 0.00 | 93 | 1009.5 |
| 20260904094610 | 10 | 217 | 0.0 | 0.0 | 0.00 | 0.33 | 0.00 | 93 | 1009.5 |
| 20260904093100 | 11 | 217 | 0.0 | 0.0 | 0.00 | 0.33 | 0.00 | 92 | 1009.4 |
| 20260904091555 | 11 | 217 | 0.0 | 0.0 | 0.00 | 0.33 | 0.00 | 91 | 1009.3 |
| 20260904090052 | 11 | 217 | 0.0 | 0.0 | 0.00 | 0.33 | 0.00 | 91 | 1009.4 |
| 20260904084552 | 11 | 217 | 0.0 | 0.0 | 0.00 | 0.33 | 0.00 | 92 | 1009.3 |
| 20260904083050 | 11 | 217 | 0.0 | 0.0 | 0.00 | 0.33 | 0.00 | 91 | 1009.3 |
| 20260904081610 | 11 | 309 | 0.0 | 0.0 | 0.00 | 0.33 | 0.00 | 91 | 1009.3 |
| 20260904080050 | 12 | 309 | 0.0 | 1.6 | 0.00 | 0.33 | 0.00 | 90 | 1009.4 |
| 20260904074559 | 12 | 299 | 0.0 | 1.6 | 0.00 | 0.33 | 0.00 | 90 | 1009.4 |
| 20260904073046 | 11 | 284 | 0.0 | 0.0 | 0.00 | 0.33 | 0.00 | 90 | 1009.3 |
| 20260904071539 | 11 | 284 | 0.0 | 0.0 | 0.00 | 0.33 | 0.00 | 90 | 1009.3 |
| 20260904070034 | 11 | 284 | 0.0 | 0.0 | 0.00 | 0.33 | 0.00 | 91 | 1009.3 |
| 20260904064535 | 11 | 284 | 0.0 | 0.0 | 0.00 | 0.33 | 0.00 | 91 | 1009.2 |
| 20260904063035 | 11 | 284 | 0.0 | 0.0 | 0.00 | 0.33 | 0.00 | 91 | 1009.3 |
| 20260904061532 | 11 | 284 | 0.0 | 0.0 | 0.00 | 0.33 | 0.00 | 91 | 1009.3 |
| 20260904060031 | 11 | 284 | 0.0 | 0.0 | 0.00 | 0.33 | 0.00 | 90 | 1009.1 |
| 20260904054513 | 11 | 284 | 0.0 | 1.6 | 0.00 | 0.33 | 0.00 | 90 | 1009.3 |
| 20260904053012 | 12 | 285 | 0.0 | 1.6 | 0.00 | 0.33 | 0.00 | 90 | 1009.3 |
| 20260904051555 | 12 | 285 | 0.0 | 1.6 | 0.00 | 0.33 | 0.00 | 90 | 1009.4 |
| 20260904050052 | 12 | 200 | 0.0 | 0.0 | 0.00 | 0.33 | 0.00 | 91 | 1009.5 |
| 20260904044534 | 12 | 208 | 0.0 | 1.6 | 0.00 | 0.33 | 0.00 | 91 | 1009.4 |
| 20260904043040 | 12 | 288 | 0.0 | 0.0 | 0.00 | 0.33 | 0.00 | 91 | 1009.4 |
| 20260904041515 | 12 | 289 | 0.0 | 3.2 | 0.00 | 0.33 | 0.00 | 92 | 1009.5 |
| 20260904040015 | 12 | 296 | 0.0 | 1.6 | 0.00 | 0.33 | 0.00 | 91 | 1009.5 |
| 20260904034502 | 12 | 297 | 0.0 | 4.8 | 0.00 | 0.33 | 0.00 | 90 | 1009.4 |
| 20260904033003 | 12 | 301 | 0.0 | 1.6 | 0.00 | 0.33 | 0.00 | 90 | 1009.1 |
| 20260904031501 | 12 | 172 | 0.0 | 0.0 | 0.00 | 0.33 | 0.00 | 89 | 1008.9 |
| 20260904024604 | 12 | 275 | 0.0 | 3.2 | 0.00 | 0.33 | 0.00 | 89 | 1008.8 |
| 20260904023059 | 12 | 281 | 0.0 | 1.6 | 0.00 | 0.33 | 0.00 | 88 | 1008.7 |
| 20260904021601 | 13 | 284 | 0.0 | 3.2 | 0.00 | 0.33 | 0.00 | 87 | 1008.7 |
| 20260904020059 | 13 | 205 | 0.0 | 1.6 | 0.00 | 0.33 | 0.00 | 86 | 1008.7 |
| 20260904014558 | 13 | 296 | 0.0 | 3.2 | 0.00 | 0.33 | 0.00 | 85 | 1008.6 |
| 20260904013040 | 13 | 165 | 0.0 | 1.6 | 0.00 | 0.33 | 0.00 | 86 | 1008.7 |
| 20260904011532 | 14 | 181 | 0.0 | 0.0 | 0.00 | 0.33 | 0.00 | 84 | 1008.6 |
| 20260904010027 | 14 | 166 | 0.0 | 1.6 | 0.00 | 0.33 | 0.00 | 82 | 1008.7 |
| 20260904004525 | 15 | 262 | 0.0 | 1.6 | 0.00 | 0.33 | 0.00 | 82 | 1008.7 |
| 20260904003021 | 14 | 202 | 0.0 | 3.2 | 0.00 | 0.33 | 0.00 | 84 | 1008.6 |
| 20260904001517 | 13 | 167 | 0.0 | 1.6 | 0.00 | 0.36 | 0.00 | 86 | 1008.7 |
| 20260904000050 | 13 | 266 | 0.0 | 1.6 | 0.00 | 0.36 | 0.00 | 85 | 1008.9 |
| 20260903234516 | 13 | 181 | 0.0 | 1.6 | 0.00 | 0.36 | 0.00 | 87 | 1008.8 |
| 20260903233011 | 12 | 170 | 0.0 | 0.0 | 0.00 | 0.36 | 0.00 | 89 | 1008.8 |
| 20260903231608 | 12 | 192 | 0.0 | 0.0 | 0.00 | 0.41 | 0.00 | 91 | 1008.8 |
| 20260903230103 | 12 | 173 | 0.0 | 0.0 | 0.00 | 0.41 | 0.00 | 91 | 1009.0 |
| 20260903224556 | 12 | 149 | 0.0 | 6.4 | 0.00 | 0.41 | 0.00 | 90 | 1009.3 |
| 20260903223051 | 12 | 147 | 0.0 | 3.2 | 0.00 | 0.41 | 0.00 | 91 | 1009.2 |
| 20260903221552 | 12 | 158 | 0.0 | 1.6 | 0.00 | 0.43 | 0.00 | 92 | 1009.2 |
| 20260903220106 | 12 | 158 | 0.0 | 1.6 | 0.00 | 0.43 | 0.00 | 92 | 1009.2 |
| 20260903214553 | 12 | 172 | 0.0 | 3.2 | 0.03 | 0.43 | 0.00 | 92 | 1009.2 |
| 20260903213049 | 12 | 151 | 0.0 | 4.8 | 0.05 | 0.43 | 0.00 | 93 | 1009.4 |
| 20260903211538 | 12 | 143 | 0.0 | 1.6 | 0.15 | 0.43 | 0.43 | 95 | 1009.4 |
| 20260903210031 | 11 | 152 | 0.0 | 3.2 | 0.15 | 0.43 | 0.43 | 93 | 1009.3 |
| 20260903204531 | 12 | 127 | 0.0 | 1.6 | 0.13 | 0.41 | 0.41 | 92 | 1009.2 |
| 20260903203039 | 12 | 148 | 0.0 | 3.2 | 0.10 | 0.38 | 0.38 | 89 | 1009.3 |
| 20260903201529 | 14 | 103 | 0.0 | 6.4 | 0.00 | 0.36 | 0.28 | 85 | 1009.0 |
| 20260903200031 | 15 | 148 | 0.0 | 4.8 | 0.00 | 0.36 | 0.28 | 81 | 1009.0 |
| 20260903194542 | 15 | 185 | 0.0 | 8.0 | 0.00 | 0.36 | 0.28 | 81 | 1008.8 |
| 20260903193024 | 15 | 153 | 0.0 | 8.0 | 0.00 | 0.36 | 0.28 | 84 | 1008.8 |
| 20260903191524 | 14 | 169 | 0.0 | 6.4 | 0.00 | 0.51 | 0.28 | 85 | 1008.9 |